Date,TemperatureHighF,TemperatureAvgF,TemperatureLowF,DewpointHighF,DewpointAvgF,DewpointLowF,HumidityHigh,HumidityAvg,HumidityLow,PressureMaxIn,PressureMinIn,WindSpeedMaxMPH,WindSpeedAvgMPH,GustSpeedMaxMPH,PrecipitationSumIn
2013-1-1,38,32,17,28,21,9,76,64,51,30.03,29.83,4,1,10,0.01
2013-1-2,33,22,11,19,13,6,85,68,50,30.23,30.01,6,2,13,0.00
2013-1-3,23,12,2,17,4,-4,80,69,54,30.28,30.04,3,1,13,0.00
2013-1-4,41,33,24,26,23,18,81,67,51,30.04,29.89,3,1,9,0.07
2013-1-5,42,33,22,26,23,18,85,68,49,30.29,29.98,5,2,12,0.07
2013-1-6,45,34,25,30,26,21,89,76,55,30.23,29.95,2,0,7,0.10
2013-1-7,38,32,23,30,25,19,87,74,61,30.43,30.03,4,1,12,0.01
2013-1-8,47,33,26,30,26,21,88,74,52,30.41,30.31,4,1,10,0.03
2013-1-9,46,33,19,35,27,16,91,79,49,30.41,30.07,4,1,10,0.00
2013-1-10,48,40,28,29,26,24,84,57,42,30.58,30.19,7,2,23,0.00
2013-1-11,38,32,25,35,28,22,92,85,66,30.58,30.17,2,0,6,0.10
2013-1-12,44,39,35,41,37,33,94,92,88,30.19,30.13,2,0,5,0.00
2013-1-13,44,41,36,42,39,35,95,94,93,30.16,30.00,3,1,10,0.01
2013-1-14,51,44,36,47,37,26,95,80,60,30.34,29.91,4,1,11,0.03
2013-1-15,39,35,32,27,25,24,73,66,57,30.39,30.27,4,1,8,0.00
2013-1-16,33,32,29,31,29,24,93,88,70,30.27,29.86,1,0,4,0.04
2013-1-17,42,32,26,35,26,14,94,79,59,30.18,29.90,3,1,10,0.20
2013-1-18,30,24,19,14,9,0,63,52,38,30.46,30.11,4,2,12,0.00
2013-1-19,46,34,24,29,22,12,75,60,48,30.35,29.85,4,2,14,0.04
2013-1-20,51,39,28,33,23,11,72,54,23,30.05,29.63,5,3,13,0.00
2013-1-21,29,25,19,20,15,8,88,66,47,30.11,29.83,2,1,8,0.00
2013-1-22,24,19,12,19,2,-5,87,48,31,30.18,29.83,6,2,12,0.00
2013-1-23,18,12,6,0,-2,-5,73,52,36,30.24,30.17,5,1,16,0.00
2013-1-24,22,12,3,5,-1,-4,80,58,34,30.40,30.20,10,3,23,0.00
2013-1-25,21,16,9,13,5,2,82,61,50,30.45,30.11,6,1,15,0.00
2013-1-26,27,18,11,11,8,4,84,64,41,30.38,30.09,5,2,14,0.00
2013-1-27,35,21,9,13,7,3,87,59,28,30.54,30.38,2,0,7,0.00
2013-1-28,33,26,18,31,20,9,90,79,59,30.52,29.98,3,1,10,0.00
2013-1-29,42,36,32,36,33,29,92,87,77,30.18,29.99,2,1,6,0.12
2013-1-30,54,45,38,53,43,36,95,94,91,30.10,29.36,3,1,7,0.33
2013-1-31,54,43,31,52,30,11,95,63,36,29.71,28.97,7,2,17,1.03